STARLINK-11089, 59426

Orbit data source: Space-Track

STARLINK-11089, 59426 is a payload satellite owned by SpaceX/Seattle (US) in LEO that was launched on Sun, 07 Apr 2024 UTC via an FALCON 9 launch vehicle from the Air Force Western Test Range (AFWTR). Payload-class satellites include a variety of spacecraft equipped with specific instruments for various scientific and technological missions. These include communications satellites like Starlink; space stations such as the ISS; scientific satellites like the Hubble; Earth observation satellites from companies like Planet Labs, Umbra, and HawkEye 360; GPS; miniature CubeSats for education and research; and military/defense satellites.

Loading next visibility...
Identifier
59426, 2024-065F
Orbit
LEO
Country
Flag of USUS
Related business
Manufacturer
SpaceX/Seattle
Mission
Operational Commercial Communications
Bus & Motor
STARLINK V2MD, Unknown motor
Mass
960 kg wet, ~910 kg dry
Launch date (UTC)
2024-04-07 (2 years ago)
Launch vehicle
FALCON 9
Launch site
Air Force Western Test Range (AFWTR)
Object type
Payload
Rocket body
Debris
Shape & HBR
Box + 2 Pan, 18.1 m
Radar Cross Section
36.964 m², Large (>1 m²)

Expand to show TLE details & history
Last TLE update: 2 days ago

TLE from 2 days ago
0 STARLINK-11089
1 59426U 24065F   26171.40873160 -.00038887  00000-0 -32118-3 0  9993
2 59426  53.1592 307.7255 0001142  82.3772 277.7375 15.69441699127652
Epoch: 2026-06-20T09:48Z
TLE epoch observation values (Epoch: 2026-06-20T09:48:34.410Z)
Latitude
-0.00005°
Longitude
-108.04169°
Altitude
361.306 km
Speed
7.694 km/s
True Right ascension
20h 30m 54s
True Declination
0° 00' 00"
Sunlit
Object was in full shadow at epoch
Visualization orbit readout
Latitude
Unknown
Longitude
Unknown
Altitude
Unknown
Speed
Unknown
Apparent Right ascension
Unknown
Apparent Declination
Unknown
Sunlit
N/A
Visualization observer readout
Local Sidereal Time
21:34:09
Azimuth
Unknown
Elevation
Unknown
Doppler factor
Unknown
Orbital elements
Apogee altitude
361.525 km
Perigee altitude
359.986 km
Semi-major axis
6,738.892 km
Eccentricity
0.00011
Inclination
53.1592°
RAAN
307.7255°
Arg. of periapsis
82.3772°
True anomaly
277.72453°
Mean anomaly
277.7375°
Eccentric anomaly
277.73102°
Mean motion
3.92338 °/min
Orbital period
91.76 mins
BSTAR
-0.00032118
Loading maneuver chart data...
Computing Atmospheric mass density...
Loading historical data...
Loading historical data...
Loading historical data...
Loading historical data...
Loading historical data...
Loading historical data...
Loading historical data...

Documentation

Showing up to 5 results
|